TimeCST,TemperatureF,Dew PointF,Humidity,Sea Level PressureIn,VisibilityMPH,Wind Direction,Wind SpeedMPH,Gust SpeedMPH,PrecipitationIn,Events,Conditions,WindDirDegrees,DateUTC
12:00 AM,8.6,8.6,100,30.13,10.0,NW,13.8,-,N/A,,Partly Cloudy,310,2013-01-06 06:00:00
12:20 AM,10.4,10.4,100,30.13,10.0,NW,18.4,23.0,N/A,,Mostly Cloudy,310,2013-01-06 06:20:00
12:40 AM,10.4,10.4,100,30.12,10.0,WNW,17.3,-,N/A,,Overcast,300,2013-01-06 06:40:00
1:00 AM,10.4,10.4,100,30.11,10.0,WNW,16.1,-,N/A,,Overcast,300,2013-01-06 07:00:00
1:20 AM,10.4,10.4,100,30.11,10.0,WNW,11.5,-,N/A,,Scattered Clouds,300,2013-01-06 07:20:00
1:40 AM,10.4,10.4,100,30.12,10.0,WNW,9.2,-,N/A,,Clear,290,2013-01-06 07:40:00
2:00 AM,8.6,8.6,100,30.12,10.0,WNW,8.1,-,N/A,,Clear,290,2013-01-06 08:00:00
2:20 AM,6.8,6.8,100,30.13,10.0,WNW,10.4,-,N/A,,Partly Cloudy,300,2013-01-06 08:20:00
2:40 AM,6.8,6.8,100,30.14,10.0,WNW,9.2,-,N/A,,Partly Cloudy,290,2013-01-06 08:40:00
3:00 AM,6.8,6.8,100,30.14,10.0,WNW,5.8,-,N/A,,Clear,290,2013-01-06 09:00:00
3:20 AM,6.8,6.8,100,30.14,10.0,WNW,5.8,-,N/A,,Clear,300,2013-01-06 09:20:00
3:40 AM,6.8,6.8,100,30.14,10.0,WNW,9.2,-,N/A,,Clear,290,2013-01-06 09:40:00
4:00 AM,6.8,6.8,100,30.14,10.0,WNW,6.9,-,N/A,,Clear,300,2013-01-06 10:00:00
4:20 AM,6.8,6.8,100,30.13,10.0,West,5.8,-,N/A,,Clear,260,2013-01-06 10:20:00
4:40 AM,8.6,8.6,100,30.13,10.0,WSW,3.5,-,N/A,,Clear,250,2013-01-06 10:40:00
5:00 AM,8.6,8.6,100,30.14,10.0,West,6.9,-,N/A,,Clear,280,2013-01-06 11:00:00
5:20 AM,8.6,8.6,100,30.13,10.0,West,9.2,-,N/A,,Clear,260,2013-01-06 11:20:00
5:40 AM,8.6,8.6,100,30.13,10.0,West,9.2,-,N/A,,Clear,270,2013-01-06 11:40:00
6:00 AM,8.6,8.6,100,30.13,10.0,WNW,11.5,-,N/A,,Clear,290,2013-01-06 12:00:00
6:20 AM,8.6,8.6,100,30.15,10.0,WNW,8.1,-,N/A,,Clear,300,2013-01-06 12:20:00
6:40 AM,8.6,8.6,100,30.15,10.0,WNW,10.4,-,N/A,,Clear,300,2013-01-06 12:40:00
7:00 AM,8.6,8.6,100,30.15,10.0,West,9.2,-,N/A,,Clear,280,2013-01-06 13:00:00
7:20 AM,10.4,10.4,100,30.16,10.0,West,6.9,-,N/A,,Clear,280,2013-01-06 13:20:00
7:40 AM,8.6,8.6,100,30.15,10.0,West,3.5,-,N/A,,Clear,280,2013-01-06 13:40:00
8:00 AM,8.6,8.6,100,30.16,10.0,WNW,4.6,-,N/A,,Clear,290,2013-01-06 14:00:00
8:20 AM,8.6,8.6,100,30.16,10.0,Calm,Calm,-,N/A,,Clear,0,2013-01-06 14:20:00
8:40 AM,8.6,8.6,100,30.17,10.0,Calm,Calm,-,N/A,,Clear,0,2013-01-06 14:40:00
9:00 AM,8.6,8.6,100,30.18,10.0,West,4.6,-,N/A,,Clear,270,2013-01-06 15:00:00
9:20 AM,8.6,8.6,100,30.18,10.0,WNW,4.6,-,N/A,,Clear,290,2013-01-06 15:20:00
9:40 AM,10.4,10.4,100,30.19,10.0,WNW,4.6,-,N/A,,Clear,290,2013-01-06 15:40:00
10:00 AM,10.4,10.4,100,30.18,10.0,WNW,3.5,-,N/A,,Clear,300,2013-01-06 16:00:00
10:20 AM,10.4,10.4,100,30.18,10.0,NW,4.6,-,N/A,,Clear,310,2013-01-06 16:20:00
10:40 AM,14.0,14.0,100,30.19,10.0,Calm,Calm,-,N/A,,Clear,0,2013-01-06 16:40:00
11:00 AM,14.0,14.0,100,30.19,10.0,SW,3.5,-,N/A,,Clear,230,2013-01-06 17:00:00
11:20 AM,14.0,14.0,100,30.18,10.0,South,4.6,-,N/A,,Clear,190,2013-01-06 17:20:00
11:40 AM,15.8,15.8,100,30.17,10.0,South,4.6,-,N/A,,Clear,190,2013-01-06 17:40:00
12:00 PM,15.8,15.8,100,30.16,10.0,SSW,5.8,-,N/A,,Clear,210,2013-01-06 18:00:00
12:20 PM,15.8,15.8,100,30.15,10.0,South,4.6,-,N/A,,Clear,180,2013-01-06 18:20:00
12:40 PM,17.6,17.6,100,30.14,10.0,SSW,4.6,-,N/A,,Clear,200,2013-01-06 18:40:00
1:00 PM,17.6,17.6,100,30.14,10.0,South,5.8,-,N/A,,Clear,180,2013-01-06 19:00:00
1:20 PM,19.4,19.4,100,30.12,10.0,South,6.9,-,N/A,,Clear,180,2013-01-06 19:20:00
1:40 PM,19.4,19.4,100,30.11,10.0,South,9.2,-,N/A,,Clear,180,2013-01-06 19:40:00
2:00 PM,19.4,19.4,100,30.10,10.0,South,10.4,-,N/A,,Clear,180,2013-01-06 20:00:00
2:20 PM,19.4,19.4,100,30.10,10.0,South,10.4,-,N/A,,Clear,180,2013-01-06 20:20:00
2:40 PM,19.4,19.4,100,30.10,10.0,South,13.8,-,N/A,,Clear,190,2013-01-06 20:40:00
3:00 PM,21.2,21.2,100,30.09,10.0,South,10.4,-,N/A,,Clear,170,2013-01-06 21:00:00
3:20 PM,19.4,19.4,100,30.08,10.0,South,11.5,-,N/A,,Clear,180,2013-01-06 21:20:00
3:40 PM,19.4,19.4,100,30.08,10.0,South,10.4,-,N/A,,Clear,170,2013-01-06 21:40:00
4:00 PM,19.4,19.4,100,30.08,10.0,South,9.2,-,N/A,,Clear,180,2013-01-06 22:00:00
4:40 PM,19.4,19.4,100,30.06,10.0,SSE,10.4,-,N/A,,Clear,160,2013-01-06 22:40:00
5:00 PM,17.6,17.6,100,30.04,10.0,SSE,9.2,-,N/A,,Clear,150,2013-01-06 23:00:00
5:20 PM,17.6,17.6,100,30.03,10.0,SSE,9.2,-,N/A,,Clear,160,2013-01-06 23:20:00
5:40 PM,17.6,17.6,100,30.02,10.0,South,11.5,-,N/A,,Clear,170,2013-01-06 23:40:00
6:00 PM,17.6,17.6,100,30.02,10.0,SSE,12.7,18.4,N/A,,Clear,160,2013-01-07 00:00:00
6:20 PM,17.6,17.6,100,30.01,10.0,SSE,12.7,18.4,N/A,,Clear,160,2013-01-07 00:20:00
6:40 PM,17.6,17.6,100,30.00,10.0,South,12.7,-,N/A,,Clear,170,2013-01-07 00:40:00
7:00 PM,17.6,17.6,100,29.98,10.0,South,16.1,-,N/A,,Clear,170,2013-01-07 01:00:00
7:20 PM,17.6,17.6,100,29.97,10.0,South,17.3,-,N/A,,Clear,170,2013-01-07 01:20:00
7:40 PM,19.4,19.4,100,29.95,10.0,South,19.6,26.5,N/A,,Clear,170,2013-01-07 01:40:00
8:00 PM,19.4,19.4,100,29.94,10.0,South,18.4,-,N/A,,Clear,170,2013-01-07 02:00:00
8:20 PM,19.4,19.4,100,29.93,10.0,South,18.4,-,N/A,,Clear,170,2013-01-07 02:20:00
9:00 PM,21.2,21.2,100,29.90,10.0,South,17.3,-,N/A,,Clear,170,2013-01-07 03:00:00
9:20 PM,24.8,24.8,100,29.89,10.0,South,16.1,20.7,N/A,,Clear,170,2013-01-07 03:20:00
9:40 PM,24.8,24.8,100,29.87,10.0,South,21.9,-,N/A,,Clear,180,2013-01-07 03:40:00
10:00 PM,24.8,24.8,100,29.86,10.0,South,23.0,31.1,N/A,,Clear,180,2013-01-07 04:00:00
10:20 PM,26.6,26.6,100,29.87,10.0,South,18.4,-,N/A,,Clear,180,2013-01-07 04:20:00
10:40 PM,26.6,24.8,93,29.86,10.0,South,23.0,28.8,N/A,,Clear,190,2013-01-07 04:40:00
11:20 PM,24.8,24.8,100,29.86,10.0,South,18.4,26.5,N/A,,Clear,190,2013-01-07 05:20:00
11:40 PM,24.8,24.8,100,29.86,10.0,South,17.3,21.9,N/A,,Clear,190,2013-01-07 05:40:00